Location: Ch�tillon
(48.8024°N, 2.2935°E)
Time: 12:35:37
(UTC+00:00)

Cosmos 1697 Rocket - Pass Details

Date: 30 May 2022
Orbit: 833 x 843 km, 71.0° (Epoch: 03 July)

Event Time Altitude Azimuth Distance (km) Brightness Sun altitude
Rises 21:20:58 0° 255° (WSW) 3,396 6.1 -12.0°
Reaches altitude 10° 21:24:03 10° 272° (W) 2,465 5.6 -12.3°
Maximum altitude 21:28:14 21° 320° (NW) 1,824 5.6 -12.7°
Drops below altitude 10° 21:32:26 10° 8° (N) 2,471 5.9 -13.1°
Sets 21:35:32 0° 25° (NNE) 3,407 6.4 -13.4°
